Location: Pine Mountain Observatory
(43.7910°N, 120.9377°W)
Time: 03:56:18
(UTC-07:00)

Vanguard 1 Rocket - Pass Details

Date: 22 May 2019
Orbit: 652 x 4224 km, 34.3° (Epoch: 19 June)

Event Time Altitude Azimuth Distance (km) Brightness Sun altitude
Exits shadow 04:48:06 - 247° (WSW) 2,939 9.4 -7.4°
Reaches altitude 10° 04:48:35 10° 245° (WSW) 2,786 9.3 -7.3°
Maximum altitude 04:54:59 46° 174° (S) 1,864 8.8 -6.4°
Drops below altitude 10° 05:06:48 10° 106° (ESE) 5,051 11.8 -4.6°
Sets 05:12:11 0° 102° (ESE) 6,668 12.6 -3.8°
